Location: R�o Medio
(42.4667°N, 3.0167°W)
Time: 19:13:55
(UTC+00:00)

NOSS 3-2 (A) - Pass Details

Date: 27 February 2020
Orbit: 804 x 1404 km, 63.4° (Epoch: 06 April)

Event Time Altitude Azimuth Distance (km) Brightness Sun altitude
Rises 20:47:43 0° 323° (NW) 4,005 7.5 -31.6°
Reaches altitude 10° 20:50:17 10° 323° (NW) 3,121 6.8 -32.0°
Maximum altitude 20:57:57 83° 237° (WSW) 1,315 4.0 -33.3°
Enters shadow 20:58:23 80° 189° (S) 1,330 4.0 -33.4°
